contact:dominique.lefevre@mio.osupytheas.fr, maurice.libes@osupytheas.fr, didier.mallarino@osupytheas.fr
Project:EMSO http://www.emso-fr.org/EMSO-France
Depth: 2436.0 m
Title:EMSO Ligure Ouest : Data MII capteur MICROCAT
DateTime_Computer,Latitude,Longitude,Temperature,Conductivity,Pressure,DateTime_Instrument
DateTime_Computer,Latitude,Longitude,degC,S m-1,dbar,DateTime_Instrument
2023-12-04T00:02:48Z,42.805,6.029,13.3038,4.60110,2470.787,2023-12-04T02:05:17Z
2023-12-04T00:05:52Z,42.805,6.029,13.3035,4.60113,2470.81,2023-12-04T02:08:20Z
2023-12-04T00:08:55Z,42.805,6.029,13.3038,4.60111,2470.824,2023-12-04T02:11:23Z
2023-12-04T00:11:58Z,42.805,6.029,13.3040,4.60111,2470.824,2023-12-04T02:14:26Z
2023-12-04T00:15:01Z,42.805,6.029,13.3039,4.60111,2470.787,2023-12-04T02:17:30Z
2023-12-04T00:18:04Z,42.805,6.029,13.3039,4.60112,2470.81,2023-12-04T02:20:33Z
2023-12-04T00:21:07Z,42.805,6.029,13.3036,4.60111,2470.787,2023-12-04T02:23:36Z
2023-12-04T00:24:10Z,42.805,6.029,13.3037,4.60111,2470.81,2023-12-04T02:26:39Z
2023-12-04T00:27:13Z,42.805,6.029,13.3039,4.60110,2470.787,2023-12-04T02:29:42Z
2023-12-04T00:30:16Z,42.805,6.029,13.3038,4.60114,2470.763,2023-12-04T02:32:45Z
2023-12-04T00:33:19Z,42.805,6.029,13.3039,4.60111,2470.787,2023-12-04T02:35:48Z
2023-12-04T00:36:22Z,42.805,6.029,13.3037,4.60110,2470.763,2023-12-04T02:38:51Z
2023-12-04T00:39:25Z,42.805,6.029,13.3038,4.60110,2470.824,2023-12-04T02:41:54Z
2023-12-04T00:42:28Z,42.805,6.029,13.3037,4.60113,2470.824,2023-12-04T02:44:57Z
2023-12-04T00:45:32Z,42.805,6.029,13.3039,4.60110,2470.8,2023-12-04T02:48:00Z
2023-12-04T00:48:35Z,42.805,6.029,13.3039,4.60110,2470.763,2023-12-04T02:51:03Z
2023-12-04T00:51:38Z,42.805,6.029,13.3032,4.60111,2470.787,2023-12-04T02:54:07Z
2023-12-04T00:54:41Z,42.805,6.029,13.3041,4.60112,2470.8,2023-12-04T02:57:10Z
2023-12-04T00:57:44Z,42.805,6.029,13.3043,4.60111,2470.763,2023-12-04T03:00:13Z
2023-12-04T01:00:47Z,42.805,6.029,13.3039,4.60110,2470.787,2023-12-04T03:03:16Z
2023-12-04T01:03:50Z,42.805,6.029,13.3041,4.60111,2470.777,2023-12-04T03:06:19Z
2023-12-04T01:06:53Z,42.805,6.029,13.3039,4.60110,2470.8,2023-12-04T03:09:22Z
2023-12-04T01:09:56Z,42.805,6.029,13.3042,4.60113,2470.763,2023-12-04T03:12:25Z
2023-12-04T01:12:59Z,42.805,6.029,13.3037,4.60111,2470.81,2023-12-04T03:15:28Z
2023-12-04T01:16:02Z,42.805,6.029,13.3037,4.60111,2470.787,2023-12-04T03:18:31Z
2023-12-04T01:19:05Z,42.805,6.029,13.3038,4.60110,2470.787,2023-12-04T03:21:34Z
2023-12-04T01:22:08Z,42.805,6.029,13.3039,4.60113,2470.8,2023-12-04T03:24:37Z
2023-12-04T01:25:12Z,42.805,6.029,13.3038,4.60110,2470.763,2023-12-04T03:27:40Z
2023-12-04T01:28:15Z,42.805,6.029,13.3034,4.60110,2470.754,2023-12-04T03:30:43Z
2023-12-04T01:31:18Z,42.805,6.029,13.3038,4.60112,2470.787,2023-12-04T03:33:47Z
2023-12-04T01:34:21Z,42.805,6.029,13.3038,4.60110,2470.777,2023-12-04T03:36:50Z
2023-12-04T01:37:24Z,42.805,6.029,13.3039,4.60110,2470.763,2023-12-04T03:39:53Z
2023-12-04T01:40:27Z,42.805,6.029,13.3041,4.60112,2470.763,2023-12-04T03:42:56Z
2023-12-04T01:43:30Z,42.805,6.029,13.3037,4.60111,2470.787,2023-12-04T03:45:59Z
2023-12-04T01:46:33Z,42.805,6.029,13.3035,4.60112,2470.8,2023-12-04T03:49:02Z
2023-12-04T01:49:36Z,42.805,6.029,13.3036,4.60111,2470.763,2023-12-04T03:52:05Z
2023-12-04T01:52:39Z,42.805,6.029,13.3040,4.60113,2470.8,2023-12-04T03:55:08Z
2023-12-04T01:55:42Z,42.805,6.029,13.3039,4.60112,2470.81,2023-12-04T03:58:11Z
2023-12-04T01:58:45Z,42.805,6.029,13.3043,4.60112,2470.81,2023-12-04T04:01:14Z
2023-12-04T02:01:49Z,42.805,6.029,13.3039,4.60113,2470.763,2023-12-04T04:04:17Z
2023-12-04T02:04:52Z,42.805,6.029,13.3038,4.60111,2470.763,2023-12-04T04:07:20Z
2023-12-04T02:07:55Z,42.805,6.029,13.3038,4.60114,2470.74,2023-12-04T04:10:24Z
2023-12-04T02:10:58Z,42.805,6.029,13.3036,4.60110,2470.74,2023-12-04T04:13:27Z
2023-12-04T02:14:01Z,42.805,6.029,13.3039,4.60112,2470.787,2023-12-04T04:16:30Z
2023-12-04T02:17:04Z,42.805,6.029,13.3041,4.60114,2470.763,2023-12-04T04:19:33Z
2023-12-04T02:20:07Z,42.805,6.029,13.3038,4.60111,2470.787,2023-12-04T04:22:36Z
2023-12-04T02:23:10Z,42.805,6.029,13.3034,4.60114,2470.777,2023-12-04T04:25:39Z
2023-12-04T02:26:13Z,42.805,6.029,13.3037,4.60111,2470.703,2023-12-04T04:28:42Z
2023-12-04T02:29:16Z,42.805,6.029,13.3039,4.60110,2470.763,2023-12-04T04:31:45Z
2023-12-04T02:32:19Z,42.805,6.029,13.3046,4.60111,2470.754,2023-12-04T04:34:48Z
2023-12-04T02:35:22Z,42.805,6.029,13.3041,4.60112,2470.763,2023-12-04T04:37:51Z
2023-12-04T02:38:25Z,42.805,6.029,13.3039,4.60114,2470.763,2023-12-04T04:40:54Z
2023-12-04T02:41:29Z,42.805,6.029,13.3039,4.60111,2470.777,2023-12-04T04:43:57Z
2023-12-04T02:44:32Z,42.805,6.029,13.3035,4.60111,2470.763,2023-12-04T04:47:00Z
2023-12-04T02:47:35Z,42.805,6.029,13.3034,4.60111,2470.763,2023-12-04T04:50:04Z
2023-12-04T02:50:38Z,42.805,6.029,13.3041,4.60112,2470.763,2023-12-04T04:53:07Z
2023-12-04T02:53:41Z,42.805,6.029,13.3038,4.60110,2470.74,2023-12-04T04:56:10Z
2023-12-04T02:56:44Z,42.805,6.029,13.3040,4.60112,2470.787,2023-12-04T04:59:13Z
2023-12-04T02:59:47Z,42.805,6.029,13.3038,4.60112,2470.763,2023-12-04T05:02:16Z
2023-12-04T03:02:50Z,42.805,6.029,13.3041,4.60113,2470.763,2023-12-04T05:05:19Z
2023-12-04T03:05:53Z,42.805,6.029,13.3039,4.60112,2470.763,2023-12-04T05:08:22Z
2023-12-04T03:08:56Z,42.805,6.029,13.3039,4.60111,2470.763,2023-12-04T05:11:25Z
2023-12-04T03:11:59Z,42.805,6.029,13.3039,4.60111,2470.754,2023-12-04T05:14:28Z
2023-12-04T03:15:02Z,42.805,6.029,13.3037,4.60110,2470.763,2023-12-04T05:17:31Z
2023-12-04T03:18:06Z,42.805,6.029,13.3036,4.60113,2470.787,2023-12-04T05:20:34Z
2023-12-04T03:21:09Z,42.805,6.029,13.3034,4.60112,2470.763,2023-12-04T05:23:37Z
2023-12-04T03:24:12Z,42.805,6.029,13.3038,4.60111,2470.777,2023-12-04T05:26:40Z
2023-12-04T03:27:15Z,42.805,6.029,13.3039,4.60111,2470.763,2023-12-04T05:29:44Z
2023-12-04T03:30:18Z,42.805,6.029,13.3038,4.60111,2470.74,2023-12-04T05:32:47Z
2023-12-04T03:33:21Z,42.805,6.029,13.3034,4.60110,2470.74,2023-12-04T05:35:50Z
2023-12-04T03:36:24Z,42.805,6.029,13.3038,4.60111,2470.754,2023-12-04T05:38:53Z
2023-12-04T03:39:27Z,42.805,6.029,13.3043,4.60112,2470.74,2023-12-04T05:41:56Z
2023-12-04T03:42:30Z,42.805,6.029,13.3040,4.60111,2470.763,2023-12-04T05:44:59Z
2023-12-04T03:45:33Z,42.805,6.029,13.3036,4.60110,2470.777,2023-12-04T05:48:02Z
2023-12-04T03:48:36Z,42.805,6.029,13.3036,4.60111,2470.777,2023-12-04T05:51:05Z
2023-12-04T03:51:39Z,42.805,6.029,13.3037,4.60112,2470.787,2023-12-04T05:54:08Z
2023-12-04T03:54:42Z,42.805,6.029,13.3038,4.60110,2470.777,2023-12-04T05:57:11Z
2023-12-04T03:57:46Z,42.805,6.029,13.3039,4.60111,2470.754,2023-12-04T06:00:14Z
2023-12-04T04:00:49Z,42.805,6.029,13.3038,4.60112,2470.763,2023-12-04T06:03:17Z
2023-12-04T04:03:52Z,42.805,6.029,13.3041,4.60111,2470.763,2023-12-04T06:06:21Z
2023-12-04T04:06:55Z,42.805,6.029,13.3037,4.60112,2470.74,2023-12-04T06:09:24Z
2023-12-04T04:09:58Z,42.805,6.029,13.3039,4.60113,2470.763,2023-12-04T06:12:27Z
2023-12-04T04:13:01Z,42.805,6.029,13.3042,4.60112,2470.787,2023-12-04T06:15:30Z
2023-12-04T04:16:04Z,42.805,6.029,13.3039,4.60110,2470.763,2023-12-04T06:18:33Z
2023-12-04T04:19:07Z,42.805,6.029,13.3039,4.60111,2470.763,2023-12-04T06:21:36Z
2023-12-04T04:22:10Z,42.805,6.029,13.3039,4.60111,2470.754,2023-12-04T06:24:39Z
2023-12-04T04:25:13Z,42.805,6.029,13.3038,4.60110,2470.763,2023-12-04T06:27:42Z
2023-12-04T04:28:16Z,42.805,6.029,13.3036,4.60110,2470.74,2023-12-04T06:30:45Z
2023-12-04T04:31:19Z,42.805,6.029,13.3036,4.60111,2470.754,2023-12-04T06:33:48Z
2023-12-04T04:34:23Z,42.805,6.029,13.3037,4.60111,2470.763,2023-12-04T06:36:51Z
2023-12-04T04:37:26Z,42.805,6.029,13.3038,4.60111,2470.763,2023-12-04T06:39:54Z
2023-12-04T04:40:29Z,42.805,6.029,13.3036,4.60110,2470.777,2023-12-04T06:42:57Z
2023-12-04T04:43:32Z,42.805,6.029,13.3043,4.60110,2470.754,2023-12-04T06:46:01Z
2023-12-04T04:46:35Z,42.805,6.029,13.3038,4.60110,2470.763,2023-12-04T06:49:04Z
2023-12-04T04:49:38Z,42.805,6.029,13.3037,4.60110,2470.777,2023-12-04T06:52:07Z
2023-12-04T04:52:41Z,42.805,6.029,13.3038,4.60111,2470.763,2023-12-04T06:55:10Z
2023-12-04T04:55:44Z,42.805,6.029,13.3038,4.60111,2470.73,2023-12-04T06:58:13Z
2023-12-04T04:58:47Z,42.805,6.029,13.3037,4.60110,2470.763,2023-12-04T07:01:16Z
2023-12-04T05:01:50Z,42.805,6.029,13.3038,4.60110,2470.763,2023-12-04T07:04:19Z
2023-12-04T05:04:53Z,42.805,6.029,13.3036,4.60110,2470.74,2023-12-04T07:07:22Z
2023-12-04T05:07:56Z,42.805,6.029,13.3041,4.60110,2470.777,2023-12-04T07:10:25Z
2023-12-04T05:10:59Z,42.805,6.029,13.3039,4.60110,2470.787,2023-12-04T07:13:28Z
2023-12-04T05:14:03Z,42.805,6.029,13.3035,4.60110,2470.74,2023-12-04T07:16:31Z
2023-12-04T05:17:06Z,42.805,6.029,13.3037,4.60110,2470.8,2023-12-04T07:19:34Z
2023-12-04T05:20:09Z,42.805,6.029,13.3039,4.60112,2470.787,2023-12-04T07:22:37Z
2023-12-04T05:23:12Z,42.805,6.029,13.3036,4.60110,2470.787,2023-12-04T07:25:41Z
2023-12-04T05:26:15Z,42.805,6.029,13.3037,4.60112,2470.8,2023-12-04T07:28:44Z
2023-12-04T05:29:18Z,42.805,6.029,13.3041,4.60112,2470.74,2023-12-04T07:31:47Z
2023-12-04T05:32:21Z,42.805,6.029,13.3039,4.60111,2470.8,2023-12-04T07:34:50Z
2023-12-04T05:35:24Z,42.805,6.029,13.3040,4.60111,2470.763,2023-12-04T07:37:53Z
2023-12-04T05:38:27Z,42.805,6.029,13.3039,4.60111,2470.763,2023-12-04T07:40:56Z
2023-12-04T05:41:30Z,42.805,6.029,13.3036,4.60111,2470.8,2023-12-04T07:43:59Z
2023-12-04T05:44:33Z,42.805,6.029,13.3039,4.60111,2470.74,2023-12-04T07:47:02Z
2023-12-04T05:47:36Z,42.805,6.029,13.3040,4.60110,2470.754,2023-12-04T07:50:05Z
2023-12-04T05:50:39Z,42.805,6.029,13.3037,4.60110,2470.777,2023-12-04T07:53:08Z
2023-12-04T05:53:43Z,42.805,6.029,13.3039,4.60111,2470.74,2023-12-04T07:56:11Z
2023-12-04T05:56:46Z,42.805,6.029,13.3039,4.60112,2470.763,2023-12-04T07:59:14Z
2023-12-04T05:59:49Z,42.805,6.029,13.3036,4.60111,2470.777,2023-12-04T08:02:18Z
2023-12-04T06:02:52Z,42.805,6.029,13.3040,4.60111,2470.763,2023-12-04T08:05:21Z
2023-12-04T06:05:55Z,42.805,6.029,13.3038,4.60112,2470.763,2023-12-04T08:08:24Z
2023-12-04T06:08:58Z,42.805,6.029,13.3037,4.60114,2470.74,2023-12-04T08:11:27Z
2023-12-04T06:12:01Z,42.805,6.029,13.3036,4.60110,2470.754,2023-12-04T08:14:30Z
2023-12-04T06:15:04Z,42.805,6.029,13.3041,4.60110,2470.763,2023-12-04T08:17:33Z
2023-12-04T06:18:07Z,42.805,6.029,13.3044,4.60111,2470.787,2023-12-04T08:20:36Z
2023-12-04T06:21:10Z,42.805,6.029,13.3040,4.60111,2470.763,2023-12-04T08:23:39Z
2023-12-04T06:24:13Z,42.805,6.029,13.3039,4.60111,2470.74,2023-12-04T08:26:42Z
2023-12-04T06:27:16Z,42.805,6.029,13.3037,4.60111,2470.787,2023-12-04T08:29:45Z
2023-12-04T06:30:19Z,42.805,6.029,13.3034,4.60112,2470.777,2023-12-04T08:32:48Z
2023-12-04T06:33:23Z,42.805,6.029,13.3039,4.60112,2470.74,2023-12-04T08:35:51Z
2023-12-04T06:36:26Z,42.805,6.029,13.3036,4.60111,2470.763,2023-12-04T08:38:54Z
2023-12-04T06:39:29Z,42.805,6.029,13.3035,4.60112,2470.777,2023-12-04T08:41:57Z
2023-12-04T06:42:32Z,42.805,6.029,13.3036,4.60112,2470.763,2023-12-04T08:45:01Z
2023-12-04T06:45:35Z,42.805,6.029,13.3035,4.60111,2470.787,2023-12-04T08:48:04Z
2023-12-04T06:48:38Z,42.805,6.029,13.3038,4.60112,2470.787,2023-12-04T08:51:07Z
2023-12-04T06:51:41Z,42.805,6.029,13.3037,4.60114,2470.763,2023-12-04T08:54:10Z
2023-12-04T06:54:44Z,42.805,6.029,13.3035,4.60111,2470.777,2023-12-04T08:57:13Z
2023-12-04T06:57:47Z,42.805,6.029,13.3040,4.60111,2470.777,2023-12-04T09:00:16Z
2023-12-04T07:00:50Z,42.805,6.029,13.3040,4.60111,2470.8,2023-12-04T09:03:19Z
2023-12-04T07:03:53Z,42.805,6.029,13.3036,4.60111,2470.763,2023-12-04T09:06:22Z
2023-12-04T07:06:56Z,42.805,6.029,13.3039,4.60112,2470.787,2023-12-04T09:09:25Z
2023-12-04T07:09:59Z,42.805,6.029,13.3039,4.60114,2470.8,2023-12-04T09:12:28Z
2023-12-04T07:13:03Z,42.805,6.029,13.3039,4.60111,2470.763,2023-12-04T09:15:31Z
2023-12-04T07:16:06Z,42.805,6.029,13.3042,4.60110,2470.763,2023-12-04T09:18:34Z
2023-12-04T07:19:09Z,42.805,6.029,13.3036,4.60112,2470.777,2023-12-04T09:21:38Z
2023-12-04T07:22:12Z,42.805,6.029,13.3036,4.60111,2470.8,2023-12-04T09:24:41Z
2023-12-04T07:25:15Z,42.805,6.029,13.3038,4.60112,2470.8,2023-12-04T09:27:44Z
2023-12-04T07:28:18Z,42.805,6.029,13.3039,4.60111,2470.81,2023-12-04T09:30:47Z
2023-12-04T07:31:21Z,42.805,6.029,13.3036,4.60113,2470.787,2023-12-04T09:33:50Z
2023-12-04T07:34:24Z,42.805,6.029,13.3039,4.60111,2470.81,2023-12-04T09:36:53Z
2023-12-04T07:37:27Z,42.805,6.029,13.3037,4.60111,2470.787,2023-12-04T09:39:56Z
2023-12-04T07:40:30Z,42.805,6.029,13.3036,4.60111,2470.81,2023-12-04T09:42:59Z
2023-12-04T07:43:33Z,42.805,6.029,13.3043,4.60111,2470.81,2023-12-04T09:46:02Z
2023-12-04T07:46:36Z,42.805,6.029,13.3037,4.60110,2470.824,2023-12-04T09:49:05Z
2023-12-04T07:49:39Z,42.805,6.029,13.3039,4.60111,2470.787,2023-12-04T09:52:08Z
2023-12-04T07:52:43Z,42.805,6.029,13.3037,4.60111,2470.81,2023-12-04T09:55:11Z
2023-12-04T07:55:46Z,42.805,6.029,13.3040,4.60114,2470.81,2023-12-04T09:58:14Z
2023-12-04T07:58:49Z,42.805,6.029,13.3041,4.60110,2470.81,2023-12-04T10:01:18Z
2023-12-04T08:01:52Z,42.805,6.029,13.3036,4.60114,2470.787,2023-12-04T10:04:21Z
2023-12-04T08:04:55Z,42.805,6.029,13.3037,4.60112,2470.8,2023-12-04T10:07:24Z
2023-12-04T08:07:58Z,42.805,6.029,13.3039,4.60110,2470.81,2023-12-04T10:10:27Z
2023-12-04T08:11:01Z,42.805,6.029,13.3039,4.60111,2470.81,2023-12-04T10:13:30Z
2023-12-04T08:14:04Z,42.805,6.029,13.3041,4.60111,2470.833,2023-12-04T10:16:33Z
2023-12-04T08:17:07Z,42.805,6.029,13.3036,4.60110,2470.824,2023-12-04T10:19:36Z
2023-12-04T08:20:10Z,42.805,6.029,13.3036,4.60113,2470.833,2023-12-04T10:22:39Z
2023-12-04T08:23:13Z,42.805,6.029,13.3038,4.60113,2470.81,2023-12-04T10:25:42Z
2023-12-04T08:26:16Z,42.805,6.029,13.3043,4.60110,2470.833,2023-12-04T10:28:45Z
2023-12-04T08:29:20Z,42.805,6.029,13.3038,4.60111,2470.833,2023-12-04T10:31:48Z
2023-12-04T08:32:23Z,42.805,6.029,13.3043,4.60111,2470.833,2023-12-04T10:34:51Z
2023-12-04T08:35:26Z,42.805,6.029,13.3037,4.60110,2470.847,2023-12-04T10:37:55Z
2023-12-04T08:38:29Z,42.805,6.029,13.3037,4.60111,2470.81,2023-12-04T10:40:58Z
2023-12-04T08:41:32Z,42.805,6.029,13.3040,4.60114,2470.857,2023-12-04T10:44:01Z
2023-12-04T08:44:35Z,42.805,6.029,13.3038,4.60111,2470.833,2023-12-04T10:47:04Z
2023-12-04T08:47:38Z,42.805,6.029,13.3037,4.60110,2470.857,2023-12-04T10:50:07Z
2023-12-04T08:50:41Z,42.805,6.029,13.3039,4.60114,2470.857,2023-12-04T10:53:10Z
2023-12-04T08:53:44Z,42.805,6.029,13.3040,4.60112,2470.871,2023-12-04T10:56:13Z
2023-12-04T08:56:47Z,42.805,6.029,13.3041,4.60111,2470.824,2023-12-04T10:59:16Z
2023-12-04T08:59:50Z,42.805,6.029,13.3038,4.60111,2470.857,2023-12-04T11:02:19Z
2023-12-04T09:02:54Z,42.805,6.029,13.3041,4.60110,2470.88,2023-12-04T11:05:22Z
2023-12-04T09:05:57Z,42.805,6.029,13.3036,4.60112,2470.857,2023-12-04T11:08:25Z
2023-12-04T09:09:00Z,42.805,6.029,13.3037,4.60111,2470.857,2023-12-04T11:11:29Z
2023-12-04T09:12:03Z,42.805,6.029,13.3041,4.60110,2470.871,2023-12-04T11:14:32Z
2023-12-04T09:15:06Z,42.805,6.029,13.3038,4.60112,2470.857,2023-12-04T11:17:35Z
2023-12-04T09:18:09Z,42.805,6.029,13.3036,4.60110,2470.857,2023-12-04T11:20:38Z
2023-12-04T09:21:12Z,42.805,6.029,13.3036,4.60111,2470.857,2023-12-04T11:23:41Z
2023-12-04T09:24:15Z,42.805,6.029,13.3039,4.60113,2470.857,2023-12-04T11:26:44Z
2023-12-04T09:27:18Z,42.805,6.029,13.3038,4.60111,2470.88,2023-12-04T11:29:47Z
2023-12-04T09:30:21Z,42.805,6.029,13.3037,4.60114,2470.88,2023-12-04T11:32:50Z
2023-12-04T09:33:24Z,42.805,6.029,13.3041,4.60114,2470.904,2023-12-04T11:35:53Z
2023-12-04T09:36:27Z,42.805,6.029,13.3039,4.60111,2470.857,2023-12-04T11:38:56Z
2023-12-04T09:39:31Z,42.805,6.029,13.3039,4.60111,2470.871,2023-12-04T11:41:59Z
2023-12-04T09:42:34Z,42.805,6.029,13.3041,4.60112,2470.917,2023-12-04T11:45:02Z
2023-12-04T09:45:37Z,42.805,6.029,13.3039,4.60112,2470.866,2023-12-04T11:48:06Z
2023-12-04T09:48:40Z,42.805,6.029,13.3040,4.60112,2470.894,2023-12-04T11:51:09Z
2023-12-04T09:51:43Z,42.805,6.029,13.3039,4.60113,2470.88,2023-12-04T11:54:12Z
2023-12-04T09:54:46Z,42.805,6.029,13.3039,4.60115,2470.88,2023-12-04T11:57:15Z
2023-12-04T09:57:49Z,42.805,6.029,13.3039,4.60111,2470.94,2023-12-04T12:00:18Z
2023-12-04T10:00:52Z,42.805,6.029,13.3038,4.60111,2470.88,2023-12-04T12:03:21Z
2023-12-04T10:03:55Z,42.805,6.029,13.3039,4.60113,2470.88,2023-12-04T12:06:24Z
2023-12-04T10:06:58Z,42.805,6.029,13.3039,4.60112,2470.927,2023-12-04T12:09:27Z
2023-12-04T10:10:01Z,42.805,6.029,13.3036,4.60112,2470.927,2023-12-04T12:12:30Z
2023-12-04T10:13:04Z,42.805,6.029,13.3039,4.60111,2470.904,2023-12-04T12:15:33Z
2023-12-04T10:16:08Z,42.805,6.029,13.3039,4.60112,2470.917,2023-12-04T12:18:36Z
2023-12-04T10:19:11Z,42.805,6.029,13.3042,4.60114,2470.857,2023-12-04T12:21:39Z
2023-12-04T10:22:14Z,42.805,6.029,13.3036,4.60111,2470.927,2023-12-04T12:24:43Z
2023-12-04T10:25:17Z,42.805,6.029,13.3043,4.60112,2470.927,2023-12-04T12:27:46Z
2023-12-04T10:28:20Z,42.805,6.029,13.3037,4.60111,2470.904,2023-12-04T12:30:49Z
2023-12-04T10:31:23Z,42.805,6.029,13.3037,4.60111,2470.927,2023-12-04T12:33:52Z
2023-12-04T10:34:26Z,42.805,6.029,13.3037,4.60111,2470.927,2023-12-04T12:36:55Z
2023-12-04T10:37:29Z,42.805,6.029,13.3038,4.60115,2470.866,2023-12-04T12:39:58Z
2023-12-04T10:40:32Z,42.805,6.029,13.3036,4.60112,2470.917,2023-12-04T12:43:01Z
2023-12-04T10:43:35Z,42.805,6.029,13.3035,4.60111,2470.894,2023-12-04T12:46:04Z
2023-12-04T10:46:38Z,42.805,6.029,13.3038,4.60112,2470.917,2023-12-04T12:49:07Z
2023-12-04T10:49:41Z,42.805,6.029,13.3039,4.60112,2470.88,2023-12-04T12:52:10Z
2023-12-04T10:52:45Z,42.805,6.029,13.3041,4.60111,2470.894,2023-12-04T12:55:13Z
2023-12-04T10:55:48Z,42.805,6.029,13.3037,4.60112,2470.904,2023-12-04T12:58:16Z
2023-12-04T10:58:51Z,42.805,6.029,13.3039,4.60112,2470.94,2023-12-04T13:01:20Z
2023-12-04T11:01:54Z,42.805,6.029,13.3036,4.60111,2470.904,2023-12-04T13:04:23Z
2023-12-04T11:04:57Z,42.805,6.029,13.3036,4.60112,2470.904,2023-12-04T13:07:26Z
2023-12-04T11:08:00Z,42.805,6.029,13.3041,4.60111,2470.917,2023-12-04T13:10:29Z
2023-12-04T11:11:03Z,42.805,6.029,13.3039,4.60113,2470.904,2023-12-04T13:13:32Z
2023-12-04T11:14:06Z,42.805,6.029,13.3040,4.60112,2470.917,2023-12-04T13:16:35Z
2023-12-04T11:17:09Z,42.805,6.029,13.3041,4.60112,2470.894,2023-12-04T13:19:38Z
2023-12-04T11:20:12Z,42.805,6.029,13.3042,4.60112,2470.89,2023-12-04T13:22:41Z
2023-12-04T11:23:15Z,42.805,6.029,13.3035,4.60112,2470.927,2023-12-04T13:25:44Z
2023-12-04T11:26:19Z,42.805,6.029,13.3041,4.60117,2470.94,2023-12-04T13:28:47Z
2023-12-04T11:29:22Z,42.805,6.029,13.3036,4.60112,2470.904,2023-12-04T13:31:50Z
2023-12-04T11:32:23Z,42.805,6.029,13.3038,4.60112,2470.917,2023-12-04T13:34:52Z
2023-12-04T11:35:26Z,42.805,6.029,13.3039,4.60112,2470.904,2023-12-04T13:37:55Z
2023-12-04T11:38:29Z,42.805,6.029,13.3040,4.60112,2470.904,2023-12-04T13:40:58Z
2023-12-04T11:41:33Z,42.805,6.029,13.3039,4.60111,2470.94,2023-12-04T13:44:01Z
2023-12-04T11:44:36Z,42.805,6.029,13.3039,4.60115,2470.917,2023-12-04T13:47:04Z
2023-12-04T11:47:39Z,42.805,6.029,13.3043,4.60111,2470.927,2023-12-04T13:50:08Z
2023-12-04T11:50:42Z,42.805,6.029,13.3038,4.60112,2470.904,2023-12-04T13:53:11Z
2023-12-04T11:53:45Z,42.805,6.029,13.3038,4.60113,2470.904,2023-12-04T13:56:14Z
2023-12-04T11:56:48Z,42.805,6.029,13.3039,4.60112,2470.927,2023-12-04T13:59:17Z
2023-12-04T11:59:51Z,42.805,6.029,13.3036,4.60112,2470.95,2023-12-04T14:02:20Z
2023-12-04T12:02:54Z,42.805,6.029,13.3040,4.60111,2470.94,2023-12-04T14:05:23Z
2023-12-04T12:05:57Z,42.805,6.029,13.3038,4.60112,2470.927,2023-12-04T14:08:26Z
2023-12-04T12:09:00Z,42.805,6.029,13.3039,4.60112,2470.94,2023-12-04T14:11:29Z
2023-12-04T12:12:03Z,42.805,6.029,13.3040,4.60112,2470.904,2023-12-04T14:14:32Z
2023-12-04T12:15:06Z,42.805,6.029,13.3036,4.60112,2470.917,2023-12-04T14:17:35Z
2023-12-04T12:18:10Z,42.805,6.029,13.3041,4.60112,2470.927,2023-12-04T14:20:38Z
2023-12-04T12:21:13Z,42.805,6.029,13.3041,4.60115,2470.94,2023-12-04T14:23:41Z
2023-12-04T12:24:16Z,42.805,6.029,13.3039,4.60112,2470.927,2023-12-04T14:26:45Z
2023-12-04T12:27:19Z,42.805,6.029,13.3041,4.60112,2470.904,2023-12-04T14:29:48Z
2023-12-04T12:30:22Z,42.805,6.029,13.3039,4.60112,2470.927,2023-12-04T14:32:51Z
2023-12-04T12:33:25Z,42.805,6.029,13.3038,4.60112,2470.917,2023-12-04T14:35:54Z
2023-12-04T12:36:28Z,42.805,6.029,13.3041,4.60112,2470.927,2023-12-04T14:38:57Z
2023-12-04T12:39:31Z,42.805,6.029,13.3041,4.60112,2470.927,2023-12-04T14:42:00Z
2023-12-04T12:42:34Z,42.805,6.029,13.3039,4.60115,2470.927,2023-12-04T14:45:03Z
2023-12-04T12:45:37Z,42.805,6.029,13.3037,4.60113,2470.927,2023-12-04T14:48:06Z
2023-12-04T12:48:40Z,42.805,6.029,13.3042,4.60112,2470.95,2023-12-04T14:51:09Z
2023-12-04T12:51:43Z,42.805,6.029,13.3036,4.60112,2470.927,2023-12-04T14:54:12Z
2023-12-04T12:54:47Z,42.805,6.029,13.3041,4.60116,2470.917,2023-12-04T14:57:15Z
2023-12-04T12:57:50Z,42.805,6.029,13.3039,4.60115,2470.927,2023-12-04T15:00:18Z
2023-12-04T13:00:53Z,42.805,6.029,13.3039,4.60116,2470.94,2023-12-04T15:03:22Z
2023-12-04T13:03:56Z,42.805,6.029,13.3036,4.60112,2470.94,2023-12-04T15:06:25Z
2023-12-04T13:06:59Z,42.805,6.029,13.3038,4.60112,2470.88,2023-12-04T15:09:28Z
2023-12-04T13:10:02Z,42.805,6.029,13.3039,4.60112,2470.927,2023-12-04T15:12:31Z
2023-12-04T13:13:05Z,42.805,6.029,13.3039,4.60112,2470.917,2023-12-04T15:15:34Z
2023-12-04T13:16:08Z,42.805,6.029,13.3038,4.60112,2470.917,2023-12-04T15:18:37Z
2023-12-04T13:19:11Z,42.805,6.029,13.3039,4.60113,2470.904,2023-12-04T15:21:40Z
2023-12-04T13:22:14Z,42.805,6.029,13.3039,4.60112,2470.88,2023-12-04T15:24:43Z
2023-12-04T13:25:17Z,42.805,6.029,13.3039,4.60114,2470.904,2023-12-04T15:27:46Z
2023-12-04T13:28:20Z,42.805,6.029,13.3037,4.60112,2470.904,2023-12-04T15:30:49Z
2023-12-04T13:31:22Z,42.805,6.029,13.3044,4.60114,2470.927,2023-12-04T15:33:51Z
2023-12-04T13:34:25Z,42.805,6.029,13.3037,4.60113,2470.917,2023-12-04T15:36:54Z
2023-12-04T13:37:29Z,42.805,6.029,13.3039,4.60112,2470.917,2023-12-04T15:39:57Z
2023-12-04T13:40:32Z,42.805,6.029,13.3039,4.60112,2470.917,2023-12-04T15:43:01Z
2023-12-04T13:43:35Z,42.805,6.029,13.3039,4.60114,2470.904,2023-12-04T15:46:04Z
2023-12-04T13:46:38Z,42.805,6.029,13.3040,4.60115,2470.88,2023-12-04T15:49:07Z
2023-12-04T13:49:41Z,42.805,6.029,13.3040,4.60113,2470.904,2023-12-04T15:52:10Z
2023-12-04T13:52:44Z,42.805,6.029,13.3038,4.60111,2470.904,2023-12-04T15:55:13Z
2023-12-04T13:55:47Z,42.805,6.029,13.3035,4.60112,2470.904,2023-12-04T15:58:16Z
2023-12-04T13:58:50Z,42.805,6.029,13.3040,4.60114,2470.88,2023-12-04T16:01:19Z
2023-12-04T14:01:53Z,42.805,6.029,13.3043,4.60114,2470.917,2023-12-04T16:04:22Z
2023-12-04T14:04:56Z,42.805,6.029,13.3039,4.60117,2470.866,2023-12-04T16:07:25Z
2023-12-04T14:07:59Z,42.805,6.029,13.3039,4.60114,2470.94,2023-12-04T16:10:28Z
2023-12-04T14:11:02Z,42.805,6.029,13.3042,4.60112,2470.904,2023-12-04T16:13:31Z
2023-12-04T14:14:06Z,42.805,6.029,13.3036,4.60113,2470.88,2023-12-04T16:16:34Z
2023-12-04T14:17:09Z,42.805,6.029,13.3039,4.60114,2470.917,2023-12-04T16:19:37Z
2023-12-04T14:20:12Z,42.805,6.029,13.3044,4.60112,2470.904,2023-12-04T16:22:41Z
2023-12-04T14:23:15Z,42.805,6.029,13.3040,4.60116,2470.88,2023-12-04T16:25:44Z
2023-12-04T14:26:18Z,42.805,6.029,13.3042,4.60114,2470.894,2023-12-04T16:28:47Z
2023-12-04T14:29:21Z,42.805,6.029,13.3041,4.60115,2470.894,2023-12-04T16:31:50Z
2023-12-04T14:32:24Z,42.805,6.029,13.3041,4.60114,2470.917,2023-12-04T16:34:53Z
2023-12-04T14:35:27Z,42.805,6.029,13.3039,4.60117,2470.88,2023-12-04T16:37:56Z
2023-12-04T14:38:30Z,42.805,6.029,13.3039,4.60112,2470.88,2023-12-04T16:40:59Z
2023-12-04T14:41:33Z,42.805,6.029,13.3040,4.60114,2470.917,2023-12-04T16:44:02Z
2023-12-04T14:44:36Z,42.805,6.029,13.3041,4.60114,2470.88,2023-12-04T16:47:05Z
2023-12-04T14:47:39Z,42.805,6.029,13.3040,4.60112,2470.917,2023-12-04T16:50:08Z
2023-12-04T14:50:43Z,42.805,6.029,13.3041,4.60113,2470.894,2023-12-04T16:53:11Z
2023-12-04T14:53:46Z,42.805,6.029,13.3040,4.60112,2470.88,2023-12-04T16:56:14Z
2023-12-04T14:56:49Z,42.805,6.029,13.3039,4.60112,2470.88,2023-12-04T16:59:18Z
2023-12-04T14:59:52Z,42.805,6.029,13.3039,4.60114,2470.857,2023-12-04T17:02:21Z
2023-12-04T15:02:55Z,42.805,6.029,13.3041,4.60111,2470.88,2023-12-04T17:05:24Z